AOBA VELOX-IV (43940 NORAD) Tracking and Keplerian Element Data

This shows tracking and keplerian element data for the satellite.

Feedback or suggestion? Click here.




ElementValue
Catalog43940
NameAOBA VELOX-IV
Epoch Orbit515
Epoch Day51.92169656
Epoch Year2019
RAAN113.2537
Inclination97.2932
Eccentricity0.0026212
Argument of Perigee124.708
Mean Anonmoly321.1196
Mean Motion15.23350362
Decay Rate1.445E-05
L11 43940U 19003J 19051.92169656 .00001445 00000-0 63189-4 0 9998
L22 43940 97.2932 113.2537 0026212 124.7080 321.1196 15.23350362 5155

Live tracking and technical data element details for AOBA VELOX-IV (NORAD 43940). AOBA VELOX-IV can be tracked NOW for your location showing map with azimuth and elevation plus other details from your city location.

Track the satellite on the map from your city or location and see movement details for azimuth, elevation, latitude, longitude, range, height, and movement on the map or in text.







IsCatalogInMostPopularTable: catalog: 43940, numindb: 15
Update: records affected: 1



GetName: 43940 AOBA VELOX-IV

Hit Count: updated at: Thu, 21 Feb 2019 12:22:43 GMT